Location: Possagno
(45.8500°N, 11.8667°E)
Time: 20:20:45
(UTC+00:00)

Resurs 1-4 Rocket - Pass Details

Date: 05 October 2020
Orbit: 800 x 813 km, 98.6° (Epoch: 27 October)

Event Time Altitude Azimuth Distance (km) Brightness Sun altitude
Rises 00:35:53 0° 17° (NNE) 3,334 6.0 -44.1°
Reaches altitude 10° 00:38:15 10° 20° (NNE) 2,401 5.1 -43.9°
Enters shadow 00:38:54 14° 22° (NNE) 2,155 4.8 -43.8°
